Location: Columbia
(38.9520°N, 92.3340°W)
Time: 03:37:14
(UTC-05:00)

Iridium 22 - Visible Passes

Search period start: 28 August 2016 00:00
Search period end: 07 September 2016 00:00
Orbit: 776 x 779 km, 86.4° (Epoch: 27 August)

Date Brightness Start Highest point End Pass type
(mag) Time Alt. Az. Time Alt. Az. Time Alt. Az.
28 Aug 5.4 04:08:18 86° SW 04:08:23 87° W 04:13:38 10° N visible
29 Aug 6.3 03:35:14 49° ENE 03:35:14 49° ENE 03:39:58 10° NNE visible
29 Aug 7.0 05:15:44 17° W 05:15:56 17° WNW 05:19:22 10° NW visible
30 Aug 7.3 03:02:10 26° ENE 03:02:10 26° ENE 03:05:54 10° NNE visible
30 Aug 6.4 04:42:39 31° WNW 04:42:39 31° WNW 04:46:48 10° NNW visible
31 Aug 8.1 02:29:05 14° ENE 02:29:05 14° ENE 02:31:07 10° NE visible
31 Aug 6.0 04:09:34 49° NW 04:09:34 49° NW 04:13:40 10° N visible
01 Sep 6.4 03:36:28 47° NNE 03:36:28 47° NNE 03:40:11 10° N visible
01 Sep 7.5 05:16:57 12° WNW 05:16:57 12° WNW 05:18:09 10° NW visible
02 Sep 7.2 03:03:21 30° NE 03:03:21 30° NE 03:06:23 10° NNE visible
02 Sep 7.1 04:43:50 20° NW 04:43:50 20° NW 04:46:26 10° NNW visible
03 Sep 8.0 02:30:12 17° NE 02:30:12 17° NE 02:32:07 10° NNE visible
03 Sep 6.8 04:10:41 29° NW 04:10:41 29° NW 04:13:35 10° NNW visible
04 Sep 6.9 03:37:32 32° N 03:37:32 32° N 03:40:18 10° N visible
05 Sep 7.4 03:04:22 26° NNE 03:04:22 26° NNE 03:06:42 10° N visible
05 Sep 7.6 04:44:52 12° NW 04:44:52 12° NW 04:45:43 10° NW visible
06 Sep 8.0 02:31:11 18° NE 02:31:11 18° NE 02:32:44 10° NNE visible
06 Sep 7.4 04:11:40 18° NW 04:11:40 18° NW 04:13:20 10° NNW visible
